Location: Spruce Knob
(38.6995°N, 79.5330°W)
Time: 03:42:05
(UTC-05:00)

deb Explorer IX - All Passes

Search period start: 28 January 2022 00:00
Search period end: 07 February 2022 00:00
Orbit: 544 x 1082 km, 38.8° (Epoch: 27 January)

Date Brightness Start Highest point End Pass type
(mag) Time Alt. Az. Time Alt. Az. Time Alt. Az.
28 Jan - 10:21:27 10° SSW 10:25:25 21° SSE 10:29:01 10° ESE daylight
28 Jan - 12:06:48 10° WSW 12:11:44 58° SSE 12:16:04 10° E daylight
28 Jan - 13:53:42 10° W 13:58:17 87° N 14:02:26 10° E daylight
28 Jan - 15:40:36 10° W 15:44:45 60° SSW 15:48:46 10° ESE daylight
28 Jan - 17:28:00 10° WSW 17:30:47 18° SSW 17:33:36 10° SSE daylight
29 Jan - 09:55:22 10° SSW 09:59:32 21° SSE 10:03:16 10° E daylight
29 Jan - 11:40:46 10° WSW 11:45:53 59° SSE 11:50:18 10° E daylight
29 Jan - 13:27:43 10° W 13:32:27 88° N 13:36:40 10° E daylight
29 Jan - 15:14:41 10° W 15:18:57 62° SSW 15:22:58 10° ESE daylight
29 Jan - 17:02:08 10° WSW 17:04:58 18° SSW 17:07:48 10° SSE daylight
30 Jan - 09:29:16 10° SSW 09:33:36 22° SSE 09:37:30 10° E daylight
30 Jan - 11:14:41 10° WSW 11:19:59 59° SSE 11:24:34 10° E daylight
30 Jan - 13:01:42 10° W 13:06:36 88° N 13:10:54 10° E daylight
30 Jan - 14:48:45 10° W 14:53:08 63° SSW 14:57:11 10° ESE daylight
30 Jan - 16:36:13 10° WSW 16:39:09 19° SSW 16:42:01 10° SSE daylight
31 Jan - 09:03:09 10° SSW 09:07:40 22° SSE 09:11:43 10° E daylight
31 Jan - 10:48:35 10° WSW 10:54:05 59° SSE 10:58:47 10° E daylight
31 Jan - 12:35:39 10° W 12:40:44 88° N 12:45:08 10° E daylight
31 Jan - 14:22:46 10° W 14:27:17 64° SSW 14:31:24 10° ESE daylight
31 Jan - 16:10:16 10° W 16:13:18 19° SSW 16:16:16 10° SSE daylight
01 Feb - 08:37:01 10° SSW 08:41:41 23° SSE 08:45:54 10° E daylight
01 Feb - 10:22:27 10° WSW 10:28:09 59° SSE 10:33:01 10° E daylight
01 Feb - 12:09:34 10° W 12:14:50 88° N 12:19:22 10° E daylight
01 Feb - 13:56:45 10° W 14:01:26 66° SSW 14:05:37 10° ESE daylight
01 Feb - 15:44:17 10° W 15:47:28 20° SSW 15:50:31 10° SSE daylight
02 Feb - 08:10:52 10° SSW 08:15:42 23° SSE 08:20:04 10° E daylight
02 Feb - 09:56:18 10° WSW 10:02:11 59° SSE 10:07:12 10° E daylight
02 Feb - 11:43:27 10° W 11:48:55 88° N 11:53:35 10° E daylight
02 Feb - 13:30:43 10° W 13:35:34 67° SSW 13:39:49 10° ESE daylight
02 Feb - 15:18:16 10° W 15:21:36 21° SSW 15:24:46 10° SSE daylight
03 Feb - 07:44:43 10° SSW 07:49:42 23° SSE 07:54:12 10° E daylight
03 Feb - 09:30:08 10° WSW 09:36:12 59° SSE 09:41:23 10° E daylight
03 Feb - 11:17:19 10° W 11:22:59 89° N 11:27:47 10° E daylight
03 Feb - 13:04:38 10° W 13:09:40 69° SSW 13:14:03 10° ESE daylight
03 Feb - 14:52:13 10° W 14:55:44 22° SSW 14:59:01 10° SSE daylight
04 Feb - 07:18:33 10° SSW 07:23:39 23° SSE 07:28:18 10° E daylight
04 Feb - 09:03:56 10° WSW 09:10:11 59° SSE 09:15:33 10° E daylight
04 Feb - 10:51:08 10° W 10:57:01 89° N 11:01:59 10° E daylight
04 Feb - 12:38:31 10° W 12:43:45 71° SSW 12:48:15 10° ESE daylight
04 Feb - 14:26:08 10° W 14:29:51 23° SSW 14:33:17 10° SSE daylight
05 Feb - 06:52:23 10° SSW 06:57:35 24° SSE 07:02:23 10° E visible
05 Feb - 08:37:44 10° WSW 08:44:09 59° SSE 08:49:41 10° E daylight
05 Feb - 10:24:57 10° W 10:31:01 89° N 10:36:10 10° E daylight
05 Feb - 12:12:23 10° W 12:17:49 72° SSW 12:22:27 10° ESE daylight
05 Feb - 14:00:01 10° W 14:03:58 25° SSW 14:07:32 10° SSE daylight
06 Feb - 06:26:13 10° SSW 06:31:30 24° SSE 06:36:25 10° E visible
06 Feb - 08:11:31 10° WSW 08:18:04 59° SSE 08:23:48 10° E daylight
06 Feb - 09:58:44 10° W 10:05:00 89° N 10:10:19 10° E daylight
06 Feb - 11:46:13 10° W 11:51:51 73° SSW 11:56:38 10° ESE daylight
06 Feb - 13:33:52 10° W 13:38:03 26° SSW 13:41:48 10° SSE daylight
